Wind_Speed
19 22 23 24 25 28 26 21 16 11 13 14 16 15 14 12 11 11 12 16 20 19 16 16 16 13 11 10 9 6 3 1 2 5 6 6 7 8 8 8 9 8 8
15 24 25 26 28 27 24 21 19 17 17 17 17 15 15 12 13 12 13 15 18 18 16 16 16 14 12 10 8 5 2 2 3 5 8 4 4 6 10 12 11 10 10
20 19 27 29 28 28 28 25 21 19 20 17 16 13 14 11 12 13 14 16 21 19 15 17 16 14 11 11 8 5 4 4 4 5 4 4 4 13 5 7 9 10 11
19 20 25 29 31 30 27 26 22 20 19 20 18 18 17 15 14 15 12 15 20 16 17 17 15 13 11 11 9 7 5 5 6 5 6 7 10 5 6 7 10 10 13
20 22 26 30 29 28 26 23 22 21 21 22 21 20 17 15 15 20 17 15 17 18 17 16 15 13 11 10 8 7 7 6 6 7 7 8 10 11 11 9 12 14 15
21 21 28 28 30 28 26 25 25 24 23 23 23 21 20 18 18 21 21 20 20 19 19 18 16 14 12 11 7 11 10 7 7 7 8 9 10 11 12 11 15 17 19
20 20 21 25 27 28 28 27 27 26 25 24 24 24 22 21 22 22 24 22 21 21 21 20 18 15 14 8 10 10 9 8 8 8 8 9 9 10 11 13 16 17 19
18 20 20 25 25 27 27 27 26 25 25 24 25 24 23 22 22 23 21 24 21 19 18 18 17 16 15 9 10 10 12 10 9 9 9 9 10 11 12 13 16 12 17
14 18 19 24 26 27 29 29 27 25 25 26 24 25 24 24 23 20 21 20 19 17 18 19 18 19 12 11 12 12 12 10 9 9 10 12 12 13 13 15 16 17 11
7 11 13 22 24 26 27 26 26 25 23 22 21 22 23 22 23 19 18 17 17 17 20 19 17 12 12 13 13 13 12 11 10 11 12 14 14 15 15 17 17 18 20
4 8 10 15 19 20 22 24 24 22 20 19 18 19 19 18 18 16 16 17 17 20 21 17 13 13 12 13 13 13 13 13 13 14 15 17 17 18 18 19 19 20 20
4 6 8 12 16 19 20 22 20 19 17 14 15 14 13 13 14 15 17 18 19 20 20 16 10 10 11 11 13 14 14 15 16 17 18 19 19 20 20 21 21 22 23
6 7 8 9 13 16 18 19 17 15 12 12 15 17 18 16 14 18 20 23 21 15 8 7 9 10 10 12 14 15 15 17 18 19 20 21 21 23 22 22 23 24 25
6 7 9 9 13 14 16 16 15 13 15 16 16 16 16 23 24 25 19 17 13 10 11 9 9 8 10 13 13 13 15 17 18 20 21 22 23 25 24 23 24 25 25
6 7 9 9 11 13 15 15 15 16 18 19 19 20 20 27 31 23 21 15 14 12 8 10 8 9 12 12 11 12 15 17 18 20 21 23 25 26 26 25 26 26 24
5 5 7 8 11 14 17 17 18 19 20 21 21 23 26 26 21 20 20 17 11 7 9 8 12 11 11 13 14 14 15 18 20 23 24 24 25 26 27 28 28 28 27
2 2 6 9 12 14 18 19 20 21 20 22 23 23 24 22 20 18 15 13 9 8 11 11 9 10 12 15 14 16 16 19 22 24 26 26 26 24 24 26 27 26 26
5 6 6 9 12 15 16 18 20 20 22 24 22 21 23 25 18 14 9 7 9 8 8 8 9 11 12 15 16 18 19 22 24 25 26 27 28 27 28 28 28 26 23
7 9 11 13 15 15 16 18 19 21 22 22 23 22 25 20 12 6 6 7 5 6 7 8 9 11 14 16 19 21 21 24 27 28 29 30 30 29 29 25 27 27 25
10 12 15 17 18 19 20 22 22 22 23 23 22 20 15 11 7 5 5 3 4 5 6 8 10 13 17 18 19 21 22 25 27 30 32 32 31 31 32 25 27 25 26
14 15 16 18 19 21 23 24 24 24 23 20 18 14 10 7 5 4 3 2 4 6 7 8 11 14 14 16 17 19 18 21 26 28 29 29 28 27 31 26 27 29 25
16 16 19 19 19 21 24 25 22 21 19 17 13 11 8 7 4 2 1 2 4 6 7 9 11 10 12 15 17 20 21 23 26 29 29 29 28 29 31 32 24 27 28
17 19 22 23 22 21 21 22 19 17 16 14 12 10 8 6 3 2 2 3 5 5 7 8 10 12 14 15 17 20 24 27 28 28 32 35 34 32 31 33 26 24 25
19 22 23 22 21 19 18 18 16 13 13 12 10 8 7 5 4 3 3 3 4 6 7 9 10 12 14 14 18 21 23 24 25 24 28 30 31 31 30 27 23 20 18
21 21 22 22 21 19 18 15 14 13 13 10 8 6 5 5 4 4 3 3 4 4 6 7 9 11 13 15 19 21 24 24 23 26 24 22 20 21 18 17 16 15 16
23 22 22 21 19 17 15 13 11 9 10 9 7 6 5 4 3 2 2 2 2 1 3 5 6 9 11 16 17 20 24 21 24 19 19 20 18 16 16 13 15 15 16
Wind_Direction
162 172 174 174 177 184 192 202 207 202 183 184 185 182 183 180 187 193 187 183 184 179 171 167 164 161 163 157 144 141 142 174 304 306 304 277 251 251 261 269 290 289 296
183 181 184 186 191 195 202 207 209 204 196 195 190 192 190 196 194 191 182 187 184 180 173 172 171 168 162 156 157 166 186 259 273 316 302 304 279 233 260 270 278 284 283
188 197 198 200 201 206 207 210 213 211 209 200 192 192 183 180 187 190 188 191 188 182 182 179 177 170 165 170 170 182 226 278 246 265 302 304 307 324 293 256 277 286 280
197 197 201 205 208 211 213 217 222 219 211 201 197 196 197 197 198 187 186 190 188 185 189 186 178 173 176 178 183 197 215 245 276 268 264 270 289 298 298 293 270 265 282
204 205 205 209 209 210 215 217 214 212 205 202 204 204 208 204 184 184 192 197 190 194 192 189 182 182 183 180 181 195 207 231 269 276 283 271 273 270 280 296 301 298 286
210 208 210 208 210 209 210 209 207 209 204 203 204 203 202 191 185 192 194 200 202 198 196 194 190 186 175 162 195 215 216 222 245 263 268 272 281 289 291 289 295 301 296
218 212 207 205 205 200 202 203 204 207 206 205 204 204 202 196 197 194 192 206 203 200 197 193 189 180 167 194 224 237 235 238 249 250 264 263 267 274 280 287 294 294 297
220 217 215 205 205 200 199 198 200 205 205 206 208 208 207 208 204 199 202 211 210 207 198 192 185 170 180 220 243 199 226 234 245 251 252 262 259 263 272 286 295 292 290
219 216 213 210 206 200 200 200 200 205 206 203 208 209 207 207 206 203 208 213 210 200 187 183 176 177 206 251 201 217 231 238 246 254 248 251 261 264 273 281 281 281 287
203 208 212 208 208 205 204 202 204 200 204 205 209 208 209 213 211 203 202 201 192 182 176 174 177 200 256 206 205 225 236 243 255 254 251 255 261 265 272 278 278 274 276
202 206 206 206 207 206 205 205 205 202 201 204 208 207 210 208 203 194 189 182 176 169 173 172 204 235 199 206 221 238 251 251 260 257 258 261 263 266 271 277 276 273 272
215 199 198 195 196 199 201 203 202 201 200 200 197 198 187 170 167 161 162 160 164 165 183 213 209 197 206 219 236 250 258 260 264 265 264 262 264 264 269 274 273 273 276
209 193 191 192 194 195 199 197 195 190 181 176 162 163 169 162 151 150 155 159 168 181 204 186 187 199 226 241 259 261 264 265 267 267 265 264 262 264 269 273 274 275 275
234 214 198 192 188 189 187 189 178 167 154 161 158 153 150 142 148 152 155 159 176 168 166 198 212 226 244 261 264 265 267 270 270 268 265 262 261 265 268 271 274 277 278
250 226 211 188 176 171 169 164 157 147 147 147 140 133 137 141 146 157 163 166 160 177 184 211 225 249 259 258 258 268 272 274 275 272 267 265 264 264 262 267 274 278 277
278 248 199 176 163 160 156 152 145 145 149 146 142 140 142 145 149 151 138 151 159 176 207 237 261 253 252 253 261 265 276 280 279 277 275 273 271 264 267 268 271 266 269
314 206 176 163 154 151 148 145 144 144 141 136 136 137 139 135 136 140 139 141 174 227 257 256 243 250 260 263 272 279 280 281 279 279 280 279 275 272 267 272 274 269 268
98 106 116 126 130 134 134 136 137 136 134 132 130 131 133 132 138 135 147 200 243 240 244 253 258 264 269 272 283 287 283 282 282 283 283 280 279 275 272 272 274 272 267
87 96 110 117 120 119 124 123 123 125 126 128 129 133 135 131 140 159 235 234 231 249 265 271 272 274 281 287 290 294 290 287 285 286 285 283 279 279 271 263 263 267 261
117 120 122 124 125 130 131 128 128 129 128 131 133 139 144 143 168 184 192 217 244 264 273 277 286 290 290 295 297 301 300 296 295 292 287 285 277 270 273 271 259 255 255
125 126 125 125 128 134 134 130 131 130 131 130 130 131 135 143 145 156 173 236 273 282 294 303 306 303 305 307 312 314 312 305 304 299 296 290 287 280 275 274 262 253 257
130 126 122 120 124 129 130 128 125 130 128 129 130 126 124 126 126 141 223 303 311 314 321 329 330 322 320 318 318 317 313 307 300 297 297 294 292 289 283 269 264 262 253
134 131 126 123 124 126 128 125 128 133 130 128 126 124 119 114 102 79 5 348 339 335 330 328 325 326 325 323 325 325 315 310 298 292 289 292 291 290 289 263 264 263 260
140 137 132 127 124 125 124 123 126 128 129 126 123 120 109 110 77 66 35 18 357 343 335 336 333 328 327 334 333 331 325 314 312 310 308 296 286 283 280 263 251 254 255
143 141 135 130 125 123 118 119 124 130 128 121 113 107 96 81 74 68 56 55 46 30 351 345 339 338 332 332 330 331 329 327 319 313 307 309 300 287 268 243 236 239 244
147 144 139 131 126 120 113 109 111 121 120 116 106 97 91 85 82 88 138 324 27 29 328 344 349 334 330 333 334 333 334 335 340 329 335 342 330 307 286 247 242 235 240
Height
796 803 807 811 815 819 821 824 826 828 831 834 837 840 842 844 846 849 852 854 855 858 861 863 866 868 872 874 874 878 878 879 879 878 875 875 877 877 876 876 875 874 873
792 797 803 807 811 814 818 821 823 826 829 831 834 837 840 842 846 849 850 853 854 857 859 862 864 867 869 872 874 876 877 877 879 877 874 868 869 872 873 873 872 872 871
787 792 797 801 806 809 813 817 820 823 826 828 831 835 838 841 844 847 848 850 852 855 858 860 863 864 866 870 872 874 876 875 876 877 875 867 864 867 865 869 870 869 868
774 783 789 793 797 802 808 812 815 818 821 824 827 831 833 836 840 844 847 849 850 854 857 859 860 862 865 867 869 872 873 875 873 873 874 873 873 868 863 863 863 865 865
765 770 777 783 790 797 802 806 810 814 817 820 824 827 830 835 839 839 841 847 849 852 855 856 858 860 863 865 868 870 871 871 871 871 870 870 870 870 869 862 861 861 860
755 762 768 776 782 789 796 801 805 809 813 817 820 823 826 830 833 835 837 843 846 847 850 853 855 857 859 862 867 869 867 867 868 868 869 868 867 865 864 861 859 858 856
748 752 759 767 774 780 788 794 798 802 807 812 815 818 820 823 827 829 833 838 841 842 844 848 852 854 857 861 861 864 869 868 867 866 865 865 865 864 864 862 858 855 852
740 746 750 758 766 774 781 785 789 794 799 805 809 813 815 818 821 824 828 833 836 839 843 846 850 852 855 857 858 861 864 864 864 863 863 862 862 862 861 859 857 853 848
734 738 745 751 760 767 772 777 781 787 792 795 801 805 809 813 815 819 823 828 833 836 840 844 845 847 850 853 856 859 861 861 860 860 859 859 859 858 857 856 855 851 845
733 735 739 745 753 759 766 772 776 779 786 791 797 801 805 809 811 815 819 824 829 833 838 841 844 845 846 850 853 855 856 856 855 855 855 855 855 854 854 852 850 848 844
731 734 737 742 749 754 760 766 770 775 781 787 793 797 801 805 808 812 817 822 827 831 836 839 840 844 845 850 852 852 852 851 851 851 851 850 850 849 849 847 845 843 841
728 731 734 739 744 750 755 760 766 771 777 784 789 795 798 802 806 811 817 822 827 829 833 835 838 843 845 847 848 848 847 847 847 846 845 845 845 844 843 841 839 837 834
727 730 734 737 742 747 752 757 764 771 776 782 787 790 794 800 807 812 817 821 826 831 834 835 838 839 842 843 844 844 843 842 841 841 840 839 838 837 836 834 832 830 827
725 726 731 735 740 746 751 758 764 769 774 781 786 790 795 794 802 809 820 820 824 827 831 835 837 837 838 839 840 840 839 838 836 835 834 833 832 830 829 828 825 823 820
723 724 727 732 739 746 752 758 764 769 775 781 786 790 795 798 803 812 814 818 824 829 829 833 833 834 835 836 837 836 835 833 831 830 828 827 825 824 823 822 819 817 815
723 723 726 732 740 747 752 758 764 770 775 779 784 790 795 799 805 809 812 820 825 828 830 831 831 832 832 833 833 832 831 828 826 824 822 820 818 815 815 814 812 812 810
727 727 729 734 740 747 753 760 764 769 774 779 787 792 796 801 807 812 814 819 824 827 827 828 828 829 829 829 828 827 826 824 821 818 815 812 809 808 808 806 804 802 802
733 734 736 741 745 749 754 760 765 771 776 782 788 794 798 804 809 814 817 820 821 823 823 824 825 825 825 824 823 822 821 818 814 811 808 805 802 800 799 797 796 795 794
739 740 742 745 749 754 759 763 768 774 779 784 790 796 801 806 810 813 816 817 818 819 820 821 821 821 821 820 819 818 816 811 807 804 801 798 795 792 791 790 789 788 786
744 745 747 749 752 756 761 766 772 777 782 788 794 799 803 806 808 811 813 815 816 817 818 818 818 817 816 815 814 813 810 804 800 797 793 790 786 785 784 784 782 780 779
748 750 751 753 756 760 764 769 775 781 787 791 796 800 802 805 808 811 812 813 814 815 815 815 814 812 811 810 809 807 805 801 795 791 786 783 780 777 775 775 775 771 773
749 752 755 759 764 767 771 774 780 786 790 793 798 801 804 806 808 809 810 811 811 811 811 810 809 808 808 806 804 803 801 798 793 786 780 775 773 770 768 766 765 765 765
751 753 757 763 769 774 777 779 785 789 793 796 799 801 803 805 806 807 807 807 807 807 807 808 807 805 804 802 800 798 795 791 786 781 774 768 764 761 758 756 757 758 758
752 756 760 765 769 775 780 784 788 792 795 798 800 802 803 803 804 805 805 805 806 806 805 805 804 803 801 799 798 794 789 784 778 773 766 760 756 753 751 749 749 750 751
754 759 765 770 775 779 781 784 788 790 794 798 800 801 802 803 804 805 806 807 806 806 805 804 803 802 800 799 796 792 786 780 773 766 760 753 748 744 743 742 743 744 745
754 761 766 770 776 781 784 788 790 793 794 797 800 801 802 803 804 805 805 805 805 805 804 803 802 800 798 795 791 786 780 775 767 762 757 752 747 742 739 738 738 738 738